FW7889 Weather Reports


time (UTC)temp
F
wind
direction
speed
knots
gust
knots
rain 1hr
in
rain 24hr
in
rain mn
in
humidity
%
barometer
mb
20260902104137 66 259 0.0 0.0 0.00 0.00 0.00 99 1072.6
20260902103132 66 233 0.9 0.9 0.00 0.00 0.00 99 1072.5
20260902102131 66 220 0.9 0.9 0.00 0.00 0.00 99 1072.8
20260902101131 66 246 0.0 0.0 0.00 0.00 0.00 99 1072.6
20260902100127 65 199 0.9 0.9 0.00 0.00 0.00 99 1072.4
20260902095126 65 259 0.0 0.0 0.00 0.00 0.00 99 1072.8
20260902094123 65 275 0.0 0.0 0.00 0.00 0.00 99 1072.8
20260902093118 66 217 0.9 0.9 0.00 0.00 0.00 99 1072.6
20260902092113 66 226 0.0 0.9 0.00 0.00 0.00 99 1072.6
20260902091110 66 204 0.9 0.9 0.00 0.00 0.00 99 1072.7
20260902090105 65 155 1.7 1.7 0.00 0.00 0.00 99 1072.7
20260902085100 66 220 0.9 0.9 0.00 0.00 0.00 99 1072.7
20260902084058 66 177 0.9 1.7 0.00 0.00 0.00 99 1072.8
20260902083053 66 179 2.6 2.6 0.00 0.00 0.00 99 1072.6
20260902082051 65 169 1.7 1.7 0.00 0.00 0.00 99 1072.8
20260902081047 65 193 2.6 2.6 0.00 0.00 0.00 99 1072.8
20260902080045 65 216 0.9 0.9 0.00 0.00 0.00 99 1072.6
20260902075040 65 184 0.9 1.7 0.00 0.00 0.00 99 1072.6
20260902074036 65 125 2.6 2.6 0.00 0.00 0.00 99 1072.8
20260902073034 65 186 0.9 1.7 0.00 0.00 0.00 99 1072.6
20260902072032 65 145 2.6 2.6 0.00 0.00 0.00 99 1072.8
20260902071028 64 156 1.7 1.7 0.00 0.00 0.00 99 1072.7
20260902070023 64 225 0.9 0.9 0.00 0.00 0.00 99 1072.7
20260902065018 64 195 1.7 1.7 0.00 0.00 0.00 99 1072.5
20260902064015 64 250 0.9 0.9 0.00 0.00 0.00 99 1072.5
20260902063010 64 206 0.9 0.9 0.00 0.00 0.00 99 1072.7
20260902062010 63 238 0.0 0.9 0.00 0.00 0.00 99 1072.6
20260902061006 62 293 0.0 0.0 0.00 0.00 0.00 99 1072.7
20260902060004 61 304 0.0 0.0 0.00 0.00 0.00 99 1072.7
20260902055001 62 303 0.0 0.0 0.00 0.00 0.00 99 1072.7
20260902053957 62 304 0.0 0.0 0.00 0.00 0.00 99 1072.6
20260902052957 61 302 0.0 0.0 0.00 0.00 0.00 99 1072.5
20260902051953 62 310 0.0 0.0 0.00 0.00 0.00 99 1072.5
20260902050952 62 305 0.0 0.0 0.00 0.00 0.00 99 1072.6
20260902045947 61 294 0.0 0.0 0.00 0.00 0.00 99 1072.5
20260902044945 61 293 0.0 0.0 0.00 0.00 0.00 99 1072.4
20260902043942 60 296 0.0 0.9 0.00 0.00 0.00 99 1072.3
20260902042937 60 303 0.9 0.9 0.00 0.00 0.00 99 1072.2
20260902041932 60 303 0.9 0.9 0.00 0.00 0.00 99 1072.2
20260902040932 61 303 0.0 0.0 0.00 0.00 0.00 99 1072.2
20260902035931 61 300 0.0 0.0 0.00 0.80 0.80 99 1072.0
20260902034926 61 305 0.0 0.0 0.00 0.80 0.80 99 1072.2
20260902033926 62 302 0.0 0.0 0.00 0.80 0.80 99 1072.1
20260902032925 62 304 0.9 0.9 0.00 0.80 0.80 99 1071.8
20260902031920 62 296 0.0 0.0 0.00 0.80 0.80 99 1071.9
20260902030918 62 299 0.0 0.0 0.00 0.80 0.80 99 1071.9
20260902025917 62 287 0.0 0.0 0.00 0.80 0.80 99 1071.8
20260902024913 62 287 0.0 0.0 0.00 0.80 0.80 99 1071.9
20260902023909 63 284 0.0 0.0 0.00 0.80 0.80 99 1072.1
20260902022904 63 284 0.0 0.0 0.00 0.80 0.80 99 1072.1
20260902021902 63 290 0.0 0.0 0.00 0.80 0.80 99 1072.0
20260902020857 64 288 0.0 0.9 0.00 0.80 0.80 99 1072.1
20260902015854 64 266 0.0 0.9 0.00 0.80 0.80 99 1072.1
20260902014851 65 328 0.0 0.9 0.00 0.80 0.80 99 1071.6
20260902013846 65 251 0.0 0.0 0.00 0.80 0.80 99 1071.8
20260902012843 66 270 0.0 0.0 0.00 0.80 0.80 99 1071.5
20260902011840 66 260 0.9 0.9 0.00 0.80 0.80 99 1071.3
20260902010840 67 129 1.7 1.7 0.00 0.80 0.80 99 1071.5
20260902005840 67 256 0.0 0.0 0.00 0.80 0.80 99 1071.6
20260902004836 67 222 0.9 0.9 0.00 0.80 0.80 99 1071.2
20260902003831 68 234 0.0 0.9 0.00 0.80 0.80 99 1071.1
20260902002828 68 133 1.7 1.7 0.00 0.80 0.80 99 1071.3
20260902001828 68 204 0.9 0.9 0.00 0.80 0.80 99 1071.1
20260902000824 68 258 0.0 0.0 0.00 0.80 0.80 99 1070.7
20260901235819 68 267 0.0 0.0 0.00 0.80 0.80 99 1070.6
20260901234819 69 268 0.0 0.0 0.00 0.80 0.80 98 1070.5
20260901233815 69 277 0.0 0.9 0.00 0.80 0.80 97 1070.6
20260901232812 70 269 0.9 0.9 0.00 0.80 0.80 97 1070.6
20260901231809 70 199 3.5 4.3 0.00 0.80 0.80 96 1071.0
20260901230807 70 256 0.0 0.0 0.00 0.80 0.80 96 1070.7
20260901225808 71 253 0.0 0.9 0.00 0.80 0.80 95 1070.8
20260901224803 71 244 0.9 0.9 0.00 0.80 0.80 95 1070.5
20260901223801 71 257 0.9 0.9 0.00 0.80 0.80 95 1070.7
20260901222757 72 245 0.9 0.9 0.00 0.80 0.80 94 1070.8
20260901221755 72 271 0.9 0.9 0.00 0.80 0.80 93 1070.5
20260901220756 73 223 1.7 1.7 0.00 0.80 0.80 91 1070.3
20260901215754 73 271 0.9 0.9 0.00 0.80 0.80 90 1070.3
20260901214752 73 233 0.9 0.9 0.00 0.80 0.80 90 1070.2
20260901213752 73 282 0.0 0.0 0.00 0.80 0.80 90 1070.3
20260901212752 73 265 0.0 0.0 0.00 0.80 0.80 90 1070.2
20260901211748 73 273 0.9 0.9 0.00 0.80 0.80 90 1070.3
20260901210747 73 278 0.0 0.0 0.00 0.80 0.80 91 1070.2
20260901205744 73 272 1.7 1.7 0.00 0.80 0.80 92 1070.2
20260901204739 73 254 0.9 0.9 0.00 0.80 0.80 91 1070.3
20260901203736 73 278 0.9 1.7 0.00 0.80 0.80 91 1070.1
20260901202735 73 265 2.6 4.3 0.00 0.80 0.80 91 1070.0
20260901201732 73 265 2.6 2.6 0.00 0.80 0.80 90 1070.0
20260901200732 73 264 1.7 1.7 0.00 0.80 0.80 89 1070.3
20260901195731 73 237 0.0 0.9 0.00 0.80 0.80 88 1070.1
20260901194727 72 200 0.9 0.9 0.00 0.80 0.80 88 1070.2
20260901193724 72 236 0.9 0.9 0.00 0.80 0.80 88 1070.4
20260901192723 72 236 0.9 0.9 0.00 0.80 0.80 89 1070.3
20260901191720 71 189 1.7 1.7 0.00 0.80 0.80 92 1070.2
20260901190718 72 236 0.9 0.9 0.00 0.80 0.80 92 1070.3
20260901185716 71 223 0.9 0.9 0.00 0.80 0.80 93 1070.6
20260901184716 71 248 0.0 0.9 0.00 0.80 0.80 93 1070.4
20260901183713 70 234 0.9 0.9 0.00 0.80 0.80 93 1070.4
20260901182709 70 210 0.9 0.9 0.00 0.80 0.80 94 1070.4
20260901181709 70 223 0.9 0.9 0.00 0.80 0.80 94 1070.3
20260901180709 70 237 0.9 0.9 0.00 0.80 0.80 94 1070.4
20260901175708 70 237 0.9 0.9 0.00 0.80 0.80 94 1070.1
20260901174703 70 216 0.9 1.7 0.00 0.80 0.80 94 1070.2
20260901173700 70 246 0.0 0.9 0.00 0.80 0.80 94 1070.3
20260901172657 69 245 0.9 0.9 0.00 0.80 0.80 95 1070.5
20260901171655 69 254 0.0 0.0 0.00 0.80 0.80 95 1070.3
20260901170654 69 206 2.6 2.6 0.00 0.80 0.80 95 1070.1
20260901165653 69 206 0.9 1.7 0.00 0.80 0.80 95 1070.1
20260901164651 69 239 0.9 0.9 0.00 0.80 0.80 96 1070.3
20260901163647 69 245 0.0 0.0 0.00 0.80 0.80 97 1070.3
20260901162647 68 256 0.9 0.9 0.00 0.80 0.80 98 1070.0
20260901161645 68 256 0.9 0.9 0.00 0.80 0.80 98 1070.3
20260901160641 68 272 0.9 0.9 0.00 0.80 0.80 98 1070.2
20260901155641 68 225 0.9 0.9 0.00 0.80 0.80 98 1070.4
20260901154637 68 249 0.9 0.9 0.00 0.80 0.80 98 1070.5
20260901153633 68 251 0.9 0.9 0.00 0.80 0.80 98 1070.7
20260901152628 68 149 3.5 4.3 0.00 0.80 0.80 98 1070.4
20260901151628 68 171 2.6 2.6 0.00 0.80 0.80 98 1070.6
20260901150626 67 234 0.9 0.9 0.00 0.80 0.80 99 1070.4
20260901145624 66 221 0.9 1.7 0.00 0.80 0.80 99 1070.4
20260901144619 65 148 2.6 2.6 0.00 0.80 0.80 99 1070.5
20260901143615 65 129 5.2 7.0 0.00 0.80 0.80 99 1070.3
20260901142613 65 241 1.7 1.7 0.00 0.80 0.80 99 1069.9
20260901141613 64 157 2.6 4.3 0.00 0.80 0.80 99 1069.7
20260901140613 64 217 0.0 0.9 0.00 0.80 0.80 99 1069.5
20260901135612 63 232 0.9 1.7 0.05 0.80 0.80 99 1069.4
20260901134609 63 174 4.3 5.2 0.12 0.79 0.79 99 1068.9
20260901133608 63 193 2.6 2.6 0.19 0.77 0.77 99 1069.7
20260901132608 63 170 4.3 5.2 0.05 0.74 0.74 99 1070.2
20260901131607 62 84 2.6 2.6 0.00 0.73 0.73 99 1071.2
20260901130603 62 353 0.0 0.9 0.00 0.73 0.73 99 1070.8
20260901125600 62 35 1.7 1.7 0.00 0.73 0.73 99 1070.7
20260901124555 62 339 1.7 1.7 0.00 0.73 0.73 99 1070.8
20260901123551 62 334 0.0 0.9 0.00 0.73 0.73 99 1070.7
20260901122549 62 121 0.9 0.9 0.07 0.73 0.73 99 1070.6
20260901121549 62 284 0.0 0.0 0.00 0.72 0.72 99 1071.0
20260901120544 62 295 0.0 0.0 0.00 0.72 0.72 99 1070.8
20260901115541 62 313 0.0 0.0 0.00 0.72 0.72 99 1070.5
20260901114540 62 294 0.0 0.0 0.00 0.72 0.72 99 1071.0
20260901113537 62 291 0.0 0.0 0.07 0.72 0.72 99 1070.7
20260901112533 62 281 0.0 0.0 0.00 0.71 0.71 99 1070.8
20260901111532 62 285 0.0 0.0 0.12 0.71 0.71 99 1071.0
20260901110527 62 304 0.0 0.0 0.05 0.69 0.69 99 1071.2
20260901105525 62 277 0.0 0.0 0.24 0.68 0.68 99 1071.2
20260901104520 62 280 0.0 0.0 0.19 0.64 0.64 99 1071.2